Haleyville, AL

2:47 PM CDT on July 20, 2017 (GMT -0500)
Haleyville

Weather History for K1M4 - October, 2013

Change the Weather History Date:

Sunday, October 20, 2013

  Actual Average (KJFX) Record (KJFX)
Temperature  
Mean Temperature 50 °F -  
Max Temperature 64 °F 71 °F 91 °F (2016)
Min Temperature 35 °F 43 °F 26 °F (1981)
Degree Days  
Heating Degree Days 16    
Moisture  
Dew Point 39 °F    
Average Humidity 87    
Maximum Humidity 100    
Minimum Humidity 34    
Precipitation  
Precipitation 0.00 in - - ()
Sea Level Pressure  
Sea Level Pressure 30.12 in    
Wind  
Wind Speed 1 mph (NE)    
Max Wind Speed 6 mph    
Max Gust Speed -    
Visibility 6 miles    
Events Fog    
Averages and records for this station are not official NWS values.
T = Trace of Precipitation, MM = Missing Value Source: NWS Daily Summary

Daily Weather History Graph

Daily Weather History Graph

Search for Another Location

Airport or City:

Trip Planner

Search our weather history database for the weather conditions in past years. The results will help you decide how hot, cold, wet, or windy it might be!

Date:

Astronomy

Oct. 20, 2013 Rise Set
Actual Time 7:00 AM CDT 6:09 PM CDT
Civil Twilight 6:34 AM CDT 6:35 PM CDT
Nautical Twilight 6:05 AM CDT 7:04 PM CDT
Astronomical Twilight 5:36 AM CDT 7:33 PM CDT
Moon 7:23 PM CDT 8:32 AM CDT
Length of Visible Light 12h 00m
Length of Day
11h 09m
Full, 97% of the Moon is Illuminated
Oct 20
Full
Oct 26
Last Quarter
Nov 3
New
Nov 9
First Quarter
Nov 17
Full

Hourly Weather History & Observations

Time (CDT) Temp. Windchill Dew Point Humidity Pressure Visibility Wind Dir Wind Speed Gust Speed Precip Events Conditions
12:56 AM 39.9 °F - 39.9 °F 100% 30.12 in 9.0 mi Calm Calm - N/A   Clear
1:56 AM 39.9 °F - 39.9 °F 100% 30.12 in 9.0 mi Calm Calm - N/A   Clear
2:56 AM 39.9 °F - 39.9 °F 100% 30.12 in 10.0 mi Calm Calm - N/A   Clear
3:56 AM 38.8 °F - 38.8 °F 100% 30.12 in 10.0 mi Calm Calm - N/A   Clear
4:56 AM 38.8 °F - 38.8 °F 100% 30.13 in 10.0 mi Calm Calm - N/A   Clear
5:56 AM 36.9 °F - 36.9 °F 100% 30.14 in 2.0 mi Calm Calm - N/A   Clear
6:01 AM 37.4 °F - 37.4 °F 100% 30.10 in 1.2 mi Calm Calm - N/A   Clear
6:10 AM 37.4 °F - 37.4 °F 100% 30.10 in 2.0 mi Calm Calm - N/A   Clear
6:18 AM 35.6 °F - 35.6 °F 100% 30.10 in 3.0 mi Calm Calm - N/A   Clear
6:29 AM 35.6 °F - 35.6 °F 100% 30.10 in 2.0 mi Calm Calm - N/A   Clear
6:47 AM 35.6 °F - 35.6 °F 100% 30.10 in 1.2 mi Calm Calm - N/A   Clear
6:56 AM 36.0 °F - 36.0 °F 100% 30.14 in 0.2 mi Calm Calm - N/A Fog Fog
7:05 AM 35.6 °F - 35.6 °F 100% 30.11 in 0.8 mi Calm Calm - N/A   Clear
7:07 AM 35.6 °F - 35.6 °F 100% 30.11 in 1.8 mi Calm Calm - N/A   Clear
7:14 AM 35.6 °F - 35.6 °F 100% 30.11 in 2.5 mi Calm Calm - N/A   Clear
7:24 AM 35.6 °F - 35.6 °F 100% 30.11 in 3.0 mi Calm Calm - N/A   Clear
7:32 AM 35.6 °F - 35.6 °F 100% 30.11 in 2.0 mi Calm Calm - N/A   Clear
7:47 AM 37.4 °F - 37.4 °F 100% 30.11 in 1.2 mi Calm Calm - N/A   Clear
7:56 AM 38.8 °F - 38.8 °F 100% 30.15 in 2.5 mi Calm Calm - N/A   Clear
8:03 AM 39.2 °F - 39.2 °F 100% 30.12 in 5.0 mi Calm Calm - N/A   Clear
8:56 AM 45.9 °F 43.6 °F 43.9 °F 93% 30.17 in 10.0 mi ENE 4.6 mph - N/A   Clear
9:56 AM 50.9 °F - 43.9 °F 77% 30.17 in 10.0 mi Variable 4.6 mph - N/A   Clear
10:56 AM 54.9 °F - 43.9 °F 66% 30.16 in 10.0 mi NE 4.6 mph - N/A   Clear
11:56 AM 57.9 °F - 41.9 °F 55% 30.16 in 10.0 mi Calm Calm - N/A   Clear
12:56 PM 63.0 °F - 37.9 °F 40% 30.13 in 10.0 mi Variable 5.8 mph - N/A   Clear
1:56 PM 63.0 °F - 37.9 °F 40% 30.11 in 10.0 mi Variable 4.6 mph - N/A   Clear
2:56 PM 64.9 °F - 36.9 °F 35% 30.09 in 5.0 mi NNE 4.6 mph - N/A   Haze
3:56 PM 63.9 °F - 34.9 °F 34% 30.09 in 10.0 mi Calm Calm - N/A   Clear
4:56 PM 64.9 °F - 36.9 °F 35% 30.09 in 10.0 mi Calm Calm - N/A   Clear
5:56 PM 55.9 °F - 45.9 °F 69% 30.09 in 10.0 mi Calm Calm - N/A   Clear
6:56 PM 48.9 °F - 45.9 °F 89% 30.10 in 10.0 mi Calm Calm - N/A   Clear
7:56 PM 45.9 °F - 45.0 °F 97% 30.10 in 10.0 mi Calm Calm - N/A   Clear
8:56 PM 45.0 °F - 43.9 °F 96% 30.11 in 10.0 mi Calm Calm - N/A   Clear
9:56 PM 43.0 °F - 43.0 °F 100% 30.11 in 10.0 mi Calm Calm - N/A   Clear
10:56 PM 41.9 °F - 41.9 °F 100% 30.11 in 8.0 mi Calm Calm - N/A   Clear
11:56 PM 41.0 °F - 41.0 °F 100% 30.11 in 7.0 mi Calm Calm - N/A   Clear